| time (UTC) | temp C | wind direction | speed KPH | gust KPH | rain 1hr cm | rain 24hr cm | rain mn cm | humidity % | barometer mb |
| 20260507000732 | 12 | 57 | 1.6 | 3.2 | 0.00 | 1.17 | 1.17 | 91 | 1007.9 |
| 20260507000228 | 13 | 263 | 6.4 | 9.7 | 0.00 | 1.17 | 1.17 | 91 | 1007.6 |
| 20260506235725 | 13 | 325 | 8.0 | 9.7 | 0.00 | 1.17 | 1.17 | 92 | 1007.4 |
| 20260506235221 | 14 | 301 | 12.9 | 16.1 | 0.00 | 1.17 | 1.17 | 92 | 1007.5 |
| 20260506234718 | 16 | 2 | 8.0 | 11.3 | 0.00 | 1.17 | 1.17 | 95 | 1007.0 |
| 20260506234215 | 16 | 3 | 1.6 | 1.6 | 0.00 | 1.17 | 1.17 | 96 | 1006.9 |
| 20260506233713 | 16 | 56 | 1.6 | 1.6 | 0.00 | 1.17 | 1.17 | 96 | 1006.8 |
| 20260506233209 | 16 | 30 | 0.0 | 1.6 | 0.00 | 1.17 | 1.17 | 96 | 1006.6 |
| 20260506232706 | 16 | 262 | 4.8 | 4.8 | 0.00 | 1.17 | 1.17 | 96 | 1006.5 |
| 20260506232200 | 16 | 29 | 1.6 | 1.6 | 0.00 | 1.17 | 1.17 | 96 | 1006.5 |
| 20260506231658 | 17 | 45 | 0.0 | 0.0 | 0.00 | 1.17 | 1.17 | 95 | 1006.4 |
| 20260506231156 | 17 | 47 | 0.0 | 0.0 | 0.00 | 1.17 | 1.17 | 95 | 1006.6 |
| 20260506230653 | 17 | 331 | 3.2 | 3.2 | 0.00 | 1.17 | 1.17 | 95 | 1006.7 |
| 20260506230149 | 17 | 40 | 1.6 | 1.6 | 0.00 | 1.17 | 1.17 | 95 | 1006.5 |
| 20260506225646 | 17 | 314 | 4.8 | 4.8 | 0.00 | 1.17 | 1.17 | 95 | 1006.6 |
| 20260506225143 | 17 | 325 | 4.8 | 8.0 | 0.00 | 1.17 | 1.17 | 95 | 1006.5 |
| 20260506224639 | 17 | 53 | 1.6 | 3.2 | 0.00 | 1.17 | 1.17 | 95 | 1006.5 |
| 20260506224136 | 17 | 38 | 1.6 | 1.6 | 0.18 | 1.17 | 1.17 | 94 | 1006.5 |
| 20260506223632 | 17 | 35 | 1.6 | 3.2 | 0.30 | 1.17 | 1.17 | 94 | 1006.6 |
| 20260506223128 | 17 | 356 | 4.8 | 8.0 | 0.13 | 1.14 | 1.14 | 93 | 1006.3 |
| 20260506222626 | 17 | 255 | 1.6 | 1.6 | 0.00 | 1.12 | 1.12 | 91 | 1006.3 |
| 20260506222122 | 17 | 218 | 3.2 | 8.0 | 0.00 | 1.12 | 1.12 | 90 | 1006.2 |
| 20260506221620 | 17 | 233 | 4.8 | 9.7 | 0.00 | 1.12 | 1.12 | 90 | 1006.3 |
| 20260506221117 | 18 | 262 | 4.8 | 8.0 | 0.00 | 1.12 | 1.12 | 90 | 1006.3 |
| 20260506220614 | 18 | 244 | 4.8 | 4.8 | 0.00 | 1.12 | 1.12 | 89 | 1006.3 |
| 20260506220109 | 18 | 27 | 3.2 | 4.8 | 0.00 | 1.12 | 1.12 | 90 | 1006.2 |
| 20260506215606 | 17 | 344 | 4.8 | 4.8 | 0.00 | 1.12 | 1.12 | 90 | 1006.1 |
| 20260506215101 | 17 | 283 | 4.8 | 4.8 | 0.00 | 1.12 | 1.12 | 90 | 1006.1 |
| 20260506214559 | 17 | 293 | 4.8 | 4.8 | 0.00 | 1.12 | 1.12 | 91 | 1006.0 |
| 20260506214056 | 17 | 331 | 3.2 | 4.8 | 0.00 | 1.12 | 1.12 | 92 | 1006.2 |
| 20260506213554 | 17 | 300 | 3.2 | 3.2 | 0.00 | 1.12 | 1.12 | 93 | 1006.0 |
| 20260506213051 | 17 | 63 | 3.2 | 4.8 | 0.00 | 1.12 | 1.12 | 94 | 1006.0 |
| 20260506212548 | 17 | 41 | 1.6 | 1.6 | 0.00 | 1.12 | 1.12 | 95 | 1005.9 |
| 20260506212042 | 16 | 224 | 4.8 | 4.8 | 0.00 | 1.12 | 1.12 | 96 | 1006.0 |
| 20260506211539 | 16 | 0 | 3.2 | 3.2 | 0.00 | 1.12 | 1.12 | 97 | 1005.8 |
| 20260506211036 | 16 | 18 | 1.6 | 3.2 | 0.00 | 1.12 | 1.12 | 97 | 1005.7 |
| 20260506210532 | 16 | 43 | 0.0 | 0.0 | 0.00 | 1.12 | 1.12 | 98 | 1005.7 |
| 20260506210029 | 16 | 31 | 0.0 | 1.6 | 0.00 | 1.12 | 1.12 | 98 | 1005.9 |
| 20260506205526 | 16 | 313 | 3.2 | 3.2 | 0.00 | 1.12 | 1.12 | 98 | 1005.7 |
| 20260506205021 | 16 | 23 | 1.6 | 3.2 | 0.00 | 1.12 | 1.12 | 98 | 1005.6 |
| 20260506204519 | 16 | 340 | 1.6 | 3.2 | 0.00 | 1.12 | 1.12 | 98 | 1005.9 |
| 20260506204016 | 16 | 9 | 1.6 | 3.2 | 0.00 | 1.12 | 1.12 | 98 | 1005.8 |
| 20260506203515 | 16 | 3 | 3.2 | 3.2 | 0.00 | 1.12 | 1.12 | 98 | 1005.9 |
| 20260506203011 | 16 | 250 | 3.2 | 4.8 | 0.00 | 1.12 | 1.12 | 98 | 1005.7 |
| 20260506202508 | 16 | 42 | 0.0 | 0.0 | 0.00 | 1.12 | 1.12 | 98 | 1005.8 |
| 20260506202004 | 16 | 336 | 3.2 | 3.2 | 0.00 | 1.12 | 1.12 | 98 | 1005.6 |
| 20260506201502 | 16 | 355 | 1.6 | 3.2 | 0.00 | 1.12 | 1.12 | 99 | 1005.8 |
| 20260506200958 | 16 | 343 | 1.6 | 1.6 | 0.00 | 1.12 | 1.12 | 99 | 1005.8 |
| 20260506200454 | 16 | 6 | 1.6 | 3.2 | 0.00 | 1.12 | 1.12 | 99 | 1005.9 |
| 20260506195951 | 16 | 34 | 1.6 | 1.6 | 0.00 | 1.12 | 1.12 | 99 | 1005.6 |
| 20260506195448 | 16 | 41 | 1.6 | 1.6 | 0.00 | 1.12 | 1.12 | 99 | 1005.8 |
| 20260506194945 | 16 | 22 | 1.6 | 3.2 | 0.00 | 1.12 | 1.12 | 99 | 1005.9 |
| 20260506194442 | 16 | 343 | 3.2 | 4.8 | 0.00 | 1.12 | 1.12 | 99 | 1006.0 |
| 20260506193933 | 16 | 40 | 1.6 | 3.2 | 0.00 | 1.12 | 1.12 | 99 | 1005.8 |
| 20260506193430 | 16 | 17 | 3.2 | 4.8 | 0.00 | 1.12 | 1.12 | 99 | 1005.8 |
| 20260506192927 | 16 | 45 | 0.0 | 1.6 | 0.00 | 1.12 | 1.12 | 99 | 1005.8 |
| 20260506192424 | 16 | 54 | 0.0 | 0.0 | 0.00 | 1.12 | 1.12 | 99 | 1006.0 |
| 20260506191920 | 16 | 79 | 3.2 | 3.2 | 0.00 | 1.12 | 1.12 | 99 | 1005.9 |
| 20260506191417 | 16 | 205 | 3.2 | 4.8 | 0.00 | 1.12 | 1.12 | 99 | 1006.0 |
| 20260506190914 | 16 | 28 | 0.0 | 0.0 | 0.00 | 1.12 | 1.12 | 99 | 1006.0 |
| 20260506190410 | 16 | 41 | 3.2 | 3.2 | 0.00 | 1.12 | 1.12 | 99 | 1006.2 |
| 20260506185907 | 15 | 112 | 1.6 | 3.2 | 0.00 | 1.12 | 1.12 | 99 | 1006.1 |
| 20260506185404 | 16 | 53 | 0.0 | 0.0 | 0.00 | 1.12 | 1.12 | 99 | 1006.1 |
| 20260506184902 | 15 | 43 | 0.0 | 0.0 | 0.00 | 1.12 | 1.12 | 99 | 1006.1 |
| 20260506184358 | 15 | 164 | 1.6 | 3.2 | 0.00 | 1.12 | 1.12 | 99 | 1006.5 |
| 20260506183856 | 15 | 20 | 1.6 | 1.6 | 0.18 | 1.12 | 1.12 | 99 | 1006.4 |
| 20260506183350 | 15 | 292 | 0.0 | 1.6 | 0.30 | 1.12 | 1.12 | 99 | 1006.4 |
| 20260506182848 | 16 | 29 | 0.0 | 0.0 | 0.13 | 1.09 | 1.09 | 99 | 1006.5 |
| 20260506182345 | 16 | 28 | 0.0 | 0.0 | 0.18 | 1.07 | 1.07 | 99 | 1006.4 |
| 20260506181843 | 16 | 225 | 3.2 | 3.2 | 0.18 | 1.07 | 1.07 | 99 | 1006.7 |
| 20260506181341 | 16 | 45 | 0.0 | 1.6 | 0.13 | 1.04 | 1.04 | 99 | 1006.5 |
| 20260506180837 | 16 | 131 | 1.6 | 1.6 | 0.30 | 1.04 | 1.04 | 99 | 1006.4 |
| 20260506180333 | 15 | 107 | 3.2 | 4.8 | 0.30 | 1.02 | 1.02 | 99 | 1006.4 |
| 20260506175830 | 16 | 313 | 3.2 | 3.2 | 0.48 | 1.02 | 1.02 | 99 | 1006.4 |
| 20260506175327 | 15 | 358 | 1.6 | 1.6 | 0.30 | 0.97 | 0.97 | 99 | 1006.6 |
| 20260506174824 | 15 | 20 | 0.0 | 1.6 | 0.30 | 0.94 | 0.94 | 99 | 1006.7 |
| 20260506174321 | 15 | 83 | 0.0 | 1.6 | 0.18 | 0.91 | 0.91 | 98 | 1006.8 |
| 20260506173819 | 15 | 164 | 1.6 | 1.6 | 0.18 | 0.89 | 0.89 | 98 | 1006.5 |
| 20260506173315 | 15 | 13 | 0.0 | 1.6 | 0.30 | 0.89 | 0.89 | 98 | 1006.7 |
| 20260506172812 | 15 | 26 | 3.2 | 3.2 | 0.30 | 0.86 | 0.86 | 98 | 1006.7 |
| 20260506172309 | 15 | 358 | 4.8 | 4.8 | 0.43 | 0.86 | 0.86 | 98 | 1006.9 |
| 20260506171807 | 15 | 289 | 4.8 | 8.0 | 0.48 | 0.84 | 0.84 | 98 | 1006.5 |
| 20260506171303 | 15 | 226 | 4.8 | 4.8 | 0.30 | 0.79 | 0.79 | 98 | 1006.6 |
| 20260506170801 | 15 | 33 | 3.2 | 3.2 | 0.13 | 0.76 | 0.76 | 98 | 1006.8 |
| 20260506170257 | 15 | 40 | 1.6 | 1.6 | 0.18 | 0.74 | 0.74 | 98 | 1006.6 |
| 20260506165756 | 15 | 229 | 1.6 | 3.2 | 0.48 | 0.74 | 0.74 | 98 | 1006.8 |
| 20260506165253 | 15 | 246 | 3.2 | 8.0 | 0.61 | 0.71 | 0.71 | 97 | 1006.7 |
| 20260506164750 | 15 | 8 | 1.6 | 3.2 | 0.43 | 0.66 | 0.66 | 97 | 1006.6 |
| 20260506164246 | 15 | 31 | 0.0 | 1.6 | 0.13 | 0.61 | 0.61 | 97 | 1006.7 |
| 20260506163744 | 15 | 213 | 3.2 | 4.8 | 0.00 | 0.58 | 0.58 | 97 | 1007.0 |
| 20260506163238 | 15 | 97 | 1.6 | 1.6 | 0.18 | 0.58 | 0.58 | 97 | 1006.8 |
| 20260506162734 | 15 | 291 | 4.8 | 8.0 | 0.18 | 0.58 | 0.58 | 97 | 1006.7 |
| 20260506162233 | 15 | 214 | 6.4 | 9.7 | 0.18 | 0.58 | 0.58 | 97 | 1006.9 |
| 20260506161729 | 15 | 228 | 3.2 | 3.2 | 0.00 | 0.56 | 0.56 | 96 | 1007.0 |
| 20260506161227 | 15 | 347 | 4.8 | 8.0 | 0.18 | 0.56 | 0.56 | 96 | 1007.3 |
| 20260506160724 | 15 | 356 | 9.7 | 16.1 | 0.18 | 0.56 | 0.56 | 96 | 1007.0 |
| 20260506160220 | 15 | 320 | 3.2 | 3.2 | 0.13 | 0.53 | 0.53 | 96 | 1007.0 |
| 20260506155718 | 16 | 276 | 4.8 | 4.8 | 0.30 | 0.53 | 0.53 | 95 | 1007.0 |
| 20260506155215 | 16 | 19 | 6.4 | 8.0 | 0.30 | 0.53 | 0.53 | 95 | 1007.3 |
| 20260506153318 | 16 | 265 | 14.5 | 17.7 | 0.43 | 0.43 | 0.43 | 96 | 1007.3 |
| 20260506152815 | 16 | 53 | 4.8 | 8.0 | 0.48 | 0.41 | 0.41 | 96 | 1007.4 |
| 20260506152312 | 16 | 357 | 3.2 | 4.8 | 0.18 | 0.36 | 0.36 | 95 | 1007.9 |
| 20260506151811 | 16 | 51 | 3.2 | 4.8 | 0.13 | 0.33 | 0.33 | 95 | 1007.8 |
| 20260506151307 | 16 | 213 | 6.4 | 8.0 | 0.30 | 0.33 | 0.33 | 94 | 1007.6 |
| 20260506150804 | 16 | 284 | 8.0 | 9.7 | 0.18 | 0.30 | 0.30 | 94 | 1007.6 |
| 20260506150304 | 16 | 96 | 8.0 | 12.9 | 0.18 | 0.28 | 0.28 | 94 | 1007.6 |
| 20260506145758 | 16 | 56 | 3.2 | 3.2 | 0.30 | 0.28 | 0.28 | 94 | 1007.6 |
| 20260506145254 | 16 | 182 | 4.8 | 4.8 | 0.30 | 0.25 | 0.25 | 93 | 1007.1 |
| 20260506144752 | 16 | 259 | 8.0 | 11.3 | 0.18 | 0.23 | 0.23 | 93 | 1007.5 |
| 20260506144248 | 16 | 11 | 4.8 | 4.8 | 0.13 | 0.20 | 0.20 | 93 | 1007.5 |
| 20260506143746 | 16 | 203 | 4.8 | 4.8 | 0.13 | 0.20 | 0.20 | 93 | 1007.4 |
| 20260506143243 | 16 | 20 | 1.6 | 3.2 | 0.18 | 0.18 | 0.18 | 94 | 1007.4 |
| 20260506142742 | 16 | 90 | 1.6 | 1.6 | 0.18 | 0.18 | 0.18 | 94 | 1007.9 |
| 20260506142239 | 16 | 45 | 1.6 | 1.6 | 0.00 | 0.15 | 0.15 | 94 | 1007.7 |
| 20260506141738 | 16 | 240 | 4.8 | 4.8 | 0.13 | 0.15 | 0.15 | 93 | 1007.9 |
| 20260506141235 | 16 | 73 | 1.6 | 1.6 | 0.13 | 0.15 | 0.15 | 93 | 1007.7 |
| 20260506140732 | 16 | 313 | 1.6 | 3.2 | 0.18 | 0.13 | 0.13 | 93 | 1007.7 |
| 20260506140229 | 16 | 184 | 1.6 | 1.6 | 0.18 | 0.13 | 0.13 | 93 | 1007.7 |
| 20260506135726 | 16 | 204 | 4.8 | 9.7 | 0.00 | 0.10 | 0.10 | 92 | 1007.5 |
| 20260506135222 | 16 | 316 | 3.2 | 3.2 | 0.00 | 0.10 | 0.10 | 92 | 1007.6 |
| 20260506134719 | 16 | 240 | 6.4 | 8.0 | 0.13 | 0.10 | 0.10 | 91 | 1007.9 |
| 20260506134215 | 16 | 149 | 4.8 | 8.0 | 0.13 | 0.10 | 0.10 | 91 | 1008.0 |
| 20260506133713 | 16 | 173 | 3.2 | 4.8 | 0.00 | 0.08 | 0.08 | 91 | 1008.0 |
| 20260506133209 | 16 | 49 | 0.0 | 0.0 | 0.18 | 0.08 | 0.08 | 91 | 1008.0 |
| 20260506132706 | 16 | 288 | 3.2 | 3.2 | 0.18 | 0.08 | 0.08 | 91 | 1008.0 |
| 20260506132203 | 16 | 53 | 0.0 | 0.0 | 0.00 | 0.05 | 0.05 | 91 | 1007.9 |
| 20260506131701 | 16 | 318 | 1.6 | 3.2 | 0.13 | 0.05 | 0.05 | 90 | 1007.9 |
| 20260506131157 | 16 | 104 | 3.2 | 4.8 | 0.13 | 0.05 | 0.05 | 89 | 1008.0 |
| 20260506130654 | 16 | 320 | 3.2 | 3.2 | 0.13 | 0.05 | 0.05 | 88 | 1008.0 |
| 20260506130151 | 16 | 199 | 4.8 | 9.7 | 0.00 | 0.03 | 0.03 | 88 | 1008.1 |
| 20260506125649 | 17 | 50 | 0.0 | 0.0 | 0.18 | 0.03 | 0.03 | 88 | 1008.1 |
| 20260506125147 | 17 | 36 | 3.2 | 3.2 | 0.18 | 0.03 | 0.03 | 86 | 1008.1 |
| 20260506124645 | 17 | 32 | 1.6 | 3.2 | 0.00 | 0.00 | 0.00 | 85 | 1007.9 |
| 20260506124142 | 17 | 153 | 1.6 | 8.0 | 0.00 | 0.00 | 0.00 | 83 | 1008.0 |
| 20260506123639 | 17 | 249 | 9.7 | 12.9 | 0.00 | 0.00 | 0.00 | 83 | 1008.0 |
| 20260506123138 | 17 | 245 | 4.8 | 8.0 | 0.00 | 0.00 | 0.00 | 84 | 1007.7 |
| 20260506122634 | 17 | 354 | 1.6 | 3.2 | 0.00 | 0.00 | 0.00 | 83 | 1008.0 |
| 20260506122132 | 17 | 39 | 1.6 | 1.6 | 0.00 | 0.00 | 0.00 | 84 | 1007.7 |
| 20260506121630 | 17 | 292 | 4.8 | 8.0 | 0.00 | 0.00 | 0.00 | 84 | 1007.8 |
| 20260506121126 | 17 | 47 | 0.0 | 0.0 | 0.00 | 0.00 | 0.00 | 84 | 1007.8 |
| 20260506120624 | 17 | 51 | 0.0 | 0.0 | 0.00 | 0.00 | 0.00 | 85 | 1007.7 |
| 20260506120121 | 17 | 194 | 1.6 | 3.2 | 0.00 | 0.00 | 0.00 | 85 | 1007.8 |
| 20260506115620 | 17 | 12 | 1.6 | 3.2 | 0.00 | 0.00 | 0.00 | 84 | 1007.7 |
| 20260506115117 | 17 | 35 | 1.6 | 3.2 | 0.00 | 0.00 | 0.00 | 82 | 1007.6 |
| 20260506114614 | 17 | 348 | 3.2 | 3.2 | 0.00 | 0.00 | 0.00 | 81 | 1007.7 |
| 20260506114112 | 18 | 18 | 1.6 | 3.2 | 0.00 | 0.00 | 0.00 | 81 | 1007.7 |
| 20260506113610 | 18 | 196 | 4.8 | 4.8 | 0.00 | 0.00 | 0.00 | 80 | 1007.6 |
| 20260506113107 | 18 | 306 | 3.2 | 4.8 | 0.00 | 0.00 | 0.00 | 79 | 1007.8 |
| 20260506112603 | 18 | 75 | 1.6 | 3.2 | 0.00 | 0.00 | 0.00 | 78 | 1007.6 |
| 20260506112101 | 18 | 65 | 1.6 | 1.6 | 0.00 | 0.00 | 0.00 | 78 | 1007.5 |
| 20260506111559 | 18 | 327 | 3.2 | 4.8 | 0.00 | 0.00 | 0.00 | 78 | 1007.7 |
| 20260506111056 | 18 | 132 | 3.2 | 3.2 | 0.00 | 0.00 | 0.00 | 78 | 1007.8 |
| 20260506110554 | 18 | 40 | 1.6 | 3.2 | 0.00 | 0.00 | 0.00 | 77 | 1007.4 |
| 20260506110051 | 18 | 53 | 3.2 | 3.2 | 0.00 | 0.00 | 0.00 | 77 | 1007.4 |
| 20260506105547 | 18 | 267 | 3.2 | 4.8 | 0.00 | 0.00 | 0.00 | 76 | 1007.6 |
| 20260506105044 | 18 | 334 | 4.8 | 4.8 | 0.00 | 0.00 | 0.00 | 76 | 1007.4 |
| 20260506104542 | 18 | 307 | 3.2 | 4.8 | 0.00 | 0.00 | 0.00 | 76 | 1007.3 |
| 20260506104040 | 18 | 33 | 3.2 | 4.8 | 0.00 | 0.00 | 0.00 | 76 | 1007.0 |
| 20260506103537 | 18 | 288 | 6.4 | 9.7 | 0.00 | 0.00 | 0.00 | 76 | 1007.2 |
| 20260506103033 | 18 | 259 | 3.2 | 4.8 | 0.00 | 0.00 | 0.00 | 75 | 1007.1 |
| 20260506102532 | 18 | 87 | 0.0 | 1.6 | 0.00 | 0.00 | 0.00 | 75 | 1007.0 |
| 20260506102029 | 18 | 47 | 0.0 | 0.0 | 0.00 | 0.00 | 0.00 | 75 | 1007.0 |
| 20260506101525 | 18 | 46 | 0.0 | 0.0 | 0.00 | 0.00 | 0.00 | 75 | 1006.9 |
| 20260506101022 | 18 | 214 | 4.8 | 4.8 | 0.00 | 0.00 | 0.00 | 74 | 1007.1 |
| 20260506100521 | 18 | 307 | 4.8 | 8.0 | 0.00 | 0.00 | 0.00 | 74 | 1006.9 |
| 20260506100019 | 18 | 63 | 1.6 | 3.2 | 0.00 | 0.00 | 0.00 | 75 | 1007.1 |
| 20260506095517 | 17 | 320 | 3.2 | 3.2 | 0.00 | 0.00 | 0.00 | 75 | 1007.1 |
| 20260506095013 | 18 | 341 | 1.6 | 3.2 | 0.00 | 0.00 | 0.00 | 74 | 1007.2 |
| 20260506094511 | 18 | 295 | 1.6 | 1.6 | 0.00 | 0.00 | 0.00 | 73 | 1007.4 |
| 20260506094009 | 18 | 333 | 1.6 | 3.2 | 0.00 | 0.00 | 0.00 | 73 | 1007.3 |
| 20260506093507 | 18 | 41 | 0.0 | 1.6 | 0.00 | 0.00 | 0.00 | 73 | 1007.2 |
| 20260506093004 | 18 | 5 | 1.6 | 1.6 | 0.00 | 0.00 | 0.00 | 73 | 1007.0 |
| 20260506092502 | 18 | 210 | 6.4 | 8.0 | 0.00 | 0.00 | 0.00 | 72 | 1007.2 |
| 20260506091958 | 18 | 30 | 0.0 | 1.6 | 0.00 | 0.00 | 0.00 | 72 | 1007.1 |
| 20260506091456 | 18 | 296 | 1.6 | 3.2 | 0.00 | 0.00 | 0.00 | 71 | 1007.4 |
| 20260506090953 | 18 | 8 | 6.4 | 8.0 | 0.00 | 0.00 | 0.00 | 71 | 1007.2 |
| 20260506090451 | 18 | 330 | 4.8 | 8.0 | 0.00 | 0.00 | 0.00 | 71 | 1007.3 |
| 20260506085947 | 18 | 26 | 0.0 | 1.6 | 0.00 | 0.00 | 0.00 | 70 | 1007.1 |
| 20260506085444 | 18 | 30 | 0.0 | 0.0 | 0.00 | 0.00 | 0.00 | 71 | 1007.3 |
| 20260506084940 | 18 | 57 | 0.0 | 0.0 | 0.00 | 0.00 | 0.00 | 70 | 1007.3 |
| 20260506084437 | 17 | 253 | 4.8 | 4.8 | 0.00 | 0.00 | 0.00 | 70 | 1007.5 |
| 20260506083933 | 18 | 333 | 1.6 | 3.2 | 0.00 | 0.00 | 0.00 | 70 | 1007.2 |
| 20260506083431 | 17 | 4 | 1.6 | 1.6 | 0.00 | 0.00 | 0.00 | 70 | 1007.2 |
| 20260506082928 | 17 | 45 | 0.0 | 0.0 | 0.00 | 0.00 | 0.00 | 70 | 1007.4 |
| 20260506082425 | 17 | 46 | 0.0 | 0.0 | 0.00 | 0.00 | 0.00 | 72 | 1007.4 |
| 20260506081921 | 17 | 20 | 1.6 | 1.6 | 0.00 | 0.00 | 0.00 | 70 | 1007.4 |
| 20260506081420 | 17 | 76 | 0.0 | 1.6 | 0.00 | 0.00 | 0.00 | 71 | 1007.5 |
| 20260506080916 | 17 | 49 | 0.0 | 0.0 | 0.00 | 0.00 | 0.00 | 73 | 1007.5 |
| 20260506080413 | 17 | 51 | 0.0 | 0.0 | 0.00 | 0.00 | 0.00 | 72 | 1007.5 |
| 20260506073357 | 16 | 47 | 0.0 | 1.6 | 0.00 | 0.00 | 0.00 | 74 | 1007.4 |
| 20260506072854 | 16 | 53 | 0.0 | 0.0 | 0.00 | 0.00 | 0.00 | 76 | 1007.5 |
| 20260506072351 | 16 | 50 | 0.0 | 0.0 | 0.00 | 0.00 | 0.00 | 75 | 1007.6 |
| 20260506071849 | 16 | 47 | 0.0 | 0.0 | 0.00 | 0.00 | 0.00 | 76 | 1007.7 |
| 20260506071347 | 16 | 46 | 0.0 | 0.0 | 0.00 | 0.00 | 0.00 | 76 | 1007.7 |
| 20260506070843 | 16 | 50 | 0.0 | 1.6 | 0.00 | 0.00 | 0.00 | 75 | 1007.7 |
| 20260506070341 | 16 | 55 | 0.0 | 0.0 | 0.00 | 0.00 | 0.00 | 75 | 1007.7 |
| 20260506062318 | 17 | 45 | 0.0 | 0.0 | 0.00 | 0.00 | 0.00 | 67 | 1007.8 |
| 20260506061814 | 17 | 50 | 0.0 | 0.0 | 0.00 | 0.00 | 0.00 | 67 | 1008.0 |
| 20260506061310 | 17 | 56 | 0.0 | 0.0 | 0.00 | 0.00 | 0.00 | 66 | 1008.0 |
| 20260506060809 | 18 | 51 | 0.0 | 0.0 | 0.00 | 0.00 | 0.00 | 66 | 1008.2 |
| 20260506060307 | 18 | 41 | 0.0 | 0.0 | 0.00 | 0.00 | 0.00 | 64 | 1008.3 |
| 20260506051238 | 19 | 35 | 0.0 | 0.0 | 0.00 | 0.00 | 0.00 | 61 | 1008.4 |
| 20260506050736 | 19 | 48 | 0.0 | 0.0 | 0.00 | 0.00 | 0.00 | 61 | 1008.4 |
| 20260506050233 | 19 | 35 | 1.6 | 3.2 | 0.00 | 0.00 | 0.00 | 61 | 1008.6 |
| 20260506044724 | 20 | 325 | 1.6 | 3.2 | 0.00 | 0.00 | 0.00 | 60 | 1008.7 |
| 20260506044221 | 20 | 275 | 4.8 | 4.8 | 0.00 | 0.00 | 0.00 | 59 | 1008.7 |
| 20260506043718 | 19 | 24 | 1.6 | 3.2 | 0.00 | 0.00 | 0.00 | 60 | 1008.7 |
| 20260506043216 | 19 | 40 | 0.0 | 1.6 | 0.00 | 0.00 | 0.00 | 60 | 1008.5 |
| 20260506042714 | 20 | 37 | 0.0 | 0.0 | 0.00 | 0.00 | 0.00 | 59 | 1008.4 |
| 20260506042212 | 20 | 97 | 0.0 | 0.0 | 0.00 | 0.00 | 0.00 | 59 | 1008.8 |
| 20260506041711 | 20 | 67 | 1.6 | 3.2 | 0.00 | 0.00 | 0.00 | 59 | 1008.6 |
| 20260506041208 | 20 | 183 | 1.6 | 3.2 | 0.00 | 0.00 | 0.00 | 58 | 1008.5 |
| 20260506040705 | 20 | 332 | 0.0 | 1.6 | 0.00 | 0.00 | 0.00 | 59 | 1008.7 |
| 20260506040202 | 20 | 142 | 3.2 | 3.2 | 0.00 | 0.00 | 0.00 | 58 | 1008.7 |
| 20260506035658 | 20 | 7 | 3.2 | 3.2 | 0.00 | 0.33 | 0.33 | 58 | 1008.6 |
| 20260506035155 | 20 | 191 | 3.2 | 8.0 | 0.00 | 0.33 | 0.33 | 57 | 1008.6 |
| 20260506034646 | 20 | 54 | 3.2 | 4.8 | 0.00 | 0.33 | 0.33 | 56 | 1008.7 |
| 20260506034143 | 20 | 138 | 1.6 | 1.6 | 0.00 | 0.33 | 0.33 | 56 | 1008.5 |
| 20260506033641 | 20 | 249 | 3.2 | 4.8 | 0.00 | 0.33 | 0.33 | 56 | 1008.4 |
| 20260506033137 | 21 | 133 | 1.6 | 3.2 | 0.00 | 0.33 | 0.33 | 55 | 1008.3 |
| 20260506032635 | 21 | 279 | 6.4 | 8.0 | 0.00 | 0.33 | 0.33 | 55 | 1008.4 |
| 20260506032131 | 21 | 256 | 9.7 | 12.9 | 0.00 | 0.33 | 0.33 | 54 | 1008.5 |
| 20260506031628 | 21 | 87 | 4.8 | 8.0 | 0.00 | 0.33 | 0.33 | 54 | 1008.3 |
| 20260506031125 | 21 | 213 | 3.2 | 3.2 | 0.00 | 0.33 | 0.33 | 54 | 1008.5 |
| 20260506030624 | 21 | 359 | 1.6 | 3.2 | 0.00 | 0.33 | 0.33 | 54 | 1008.4 |
| 20260506030121 | 21 | 183 | 4.8 | 8.0 | 0.00 | 0.33 | 0.33 | 53 | 1008.2 |
| 20260506025618 | 21 | 296 | 4.8 | 9.7 | 0.00 | 0.33 | 0.33 | 53 | 1008.3 |
| 20260506025113 | 21 | 225 | 9.7 | 14.5 | 0.00 | 0.33 | 0.33 | 52 | 1008.4 |
| 20260506024611 | 21 | 228 | 4.8 | 8.0 | 0.00 | 0.33 | 0.33 | 52 | 1008.4 |
| 20260506024107 | 22 | 42 | 4.8 | 9.7 | 0.00 | 0.33 | 0.33 | 52 | 1008.5 |
| 20260506023603 | 22 | 215 | 8.0 | 16.1 | 0.00 | 0.33 | 0.33 | 52 | 1008.6 |
| 20260506023101 | 21 | 266 | 6.4 | 8.0 | 0.00 | 0.33 | 0.33 | 52 | 1008.6 |
| 20260506022558 | 21 | 43 | 4.8 | 4.8 | 0.00 | 0.33 | 0.33 | 52 | 1008.5 |
| 20260506022056 | 22 | 308 | 4.8 | 4.8 | 0.00 | 0.33 | 0.33 | 51 | 1008.6 |
| 20260506021553 | 22 | 236 | 6.4 | 9.7 | 0.00 | 0.33 | 0.33 | 51 | 1008.4 |
| 20260506021050 | 22 | 60 | 0.0 | 1.6 | 0.00 | 0.33 | 0.33 | 52 | 1008.5 |
| 20260506020547 | 22 | 21 | 3.2 | 4.8 | 0.00 | 0.33 | 0.33 | 51 | 1008.5 |
| 20260506020045 | 22 | 209 | 8.0 | 14.5 | 0.00 | 0.33 | 0.33 | 50 | 1008.5 |
| 20260506015542 | 22 | 3 | 4.8 | 9.7 | 0.00 | 0.33 | 0.33 | 50 | 1008.4 |
| 20260506015039 | 22 | 192 | 4.8 | 4.8 | 0.00 | 0.33 | 0.33 | 50 | 1008.5 |
| 20260506014537 | 22 | 281 | 1.6 | 3.2 | 0.00 | 0.33 | 0.33 | 50 | 1008.3 |
| 20260506014032 | 22 | 222 | 1.6 | 3.2 | 0.00 | 0.33 | 0.33 | 50 | 1008.4 |
| 20260506013531 | 22 | 26 | 1.6 | 3.2 | 0.00 | 0.33 | 0.33 | 50 | 1008.2 |
| 20260506013026 | 22 | 27 | 1.6 | 1.6 | 0.00 | 0.33 | 0.33 | 51 | 1008.3 |
| 20260506012522 | 22 | 151 | 4.8 | 8.0 | 0.00 | 0.33 | 0.33 | 50 | 1008.2 |
| 20260506012019 | 22 | 234 | 4.8 | 8.0 | 0.00 | 0.33 | 0.33 | 49 | 1008.0 |
| 20260506011517 | 22 | 10 | 0.0 | 1.6 | 0.00 | 0.33 | 0.33 | 49 | 1007.9 |
| 20260506011013 | 23 | 352 | 0.0 | 1.6 | 0.00 | 0.33 | 0.33 | 49 | 1007.9 |
| 20260506010508 | 23 | 355 | 1.6 | 1.6 | 0.00 | 0.33 | 0.33 | 48 | 1007.7 |
| 20260506010004 | 23 | 202 | 6.4 | 12.9 | 0.00 | 0.33 | 0.33 | 48 | 1007.7 |
| 20260506005501 | 23 | 244 | 3.2 | 4.8 | 0.00 | 0.33 | 0.33 | 47 | 1007.6 |
| 20260506004956 | 23 | 300 | 6.4 | 11.3 | 0.00 | 0.33 | 0.33 | 48 | 1007.8 |
| 20260506004454 | 22 | 287 | 1.6 | 3.2 | 0.00 | 0.33 | 0.33 | 49 | 1007.7 |
| 20260506003950 | 23 | 66 | 0.0 | 1.6 | 0.00 | 0.33 | 0.33 | 48 | 1007.5 |
| 20260506003447 | 23 | 224 | 3.2 | 8.0 | 0.00 | 0.33 | 0.33 | 47 | 1007.5 |
| 20260506002943 | 23 | 43 | 0.0 | 1.6 | 0.00 | 0.33 | 0.33 | 47 | 1007.4 |
| 20260506002439 | 23 | 216 | 4.8 | 8.0 | 0.00 | 0.33 | 0.33 | 45 | 1007.6 |
| 20260506001935 | 23 | 207 | 4.8 | 4.8 | 0.00 | 0.33 | 0.33 | 45 | 1007.3 |
| 20260506001432 | 23 | 47 | 1.6 | 3.2 | 0.00 | 0.33 | 0.33 | 45 | 1007.4 |
| 20260506000929 | 23 | 204 | 4.8 | 9.7 | 0.00 | 0.33 | 0.33 | 45 | 1007.2 |